Weather History for Cheraw, SC

Change the Weather History Date:

Wednesday, October 31, 2012

  Actual Average (KFLO) Record (KFLO)
Temperature  
Mean Temperature 50 °F 60 °F  
Max Temperature 62 °F 72 °F 87 °F (1961)
Min Temperature 37 °F 48 °F 33 °F (1952)
Degree Days  
Heating Degree Days 14 6  
Month to date heating degree days 106  
Since 1 July heating degree days 117  
Cooling Degree Days 0 1  
Month to date cooling degree days 86  
Year to date cooling degree days 2042  
Moisture  
Dew Point 35 °F    
Average Humidity 67    
Maximum Humidity 93    
Minimum Humidity 36    
Precipitation  
Precipitation 0.00 in 0.09 in 0.99 in (1995)
Month to date precipitation 3.08  
Year to date precipitation 37.23  
Sea Level Pressure  
Sea Level Pressure 29.73 in    
Wind  
Wind Speed 10 mph (WSW)    
Max Wind Speed 24 mph    
Max Gust Speed 33 mph    
Visibility 10 miles    
Events      
T = Trace of Precipitation, MM = Missing Value Source: NWS Daily Summary

Daily Weather History Graph

Daily Weather History Graph

Search for Another Location

Airport:

Trip Planner

Search our weather history database for the weather conditions in past years. The results will help you decide how hot, cold, wet, or windy it might be!

Date:

Astronomy

Oct. 31, 2012 Rise Set
Actual Time 7:39 AM EDT 6:26 PM EDT
Civil Twilight 7:13 AM EDT 6:52 PM EDT
Nautical Twilight 6:44 AM EDT 7:22 PM EDT
Astronomical Twilight 6:14 AM EDT 7:51 PM EDT
Moon 7:41 PM EDT (10/31) 9:15 AM EDT (10/31)
Length of Visible Light 11h 38m
Length of Day
10h 46m
Full, 97% of the Moon is Illuminated
Oct 31
Full
Nov 6
Last Quarter
Nov 13
New
Nov 20
First Quarter
Nov 28
Full

Hourly Weather History & Observations

Time (EDT) Temp. Windchill Dew Point Humidity Pressure Visibility Wind Dir Wind Speed Gust Speed Precip Events Conditions
12:15 AM 42.8 °F 37.0 °F 33.8 °F 70% 29.68 in 10.0 mi WSW 10.4 mph - N/A   Overcast
12:35 AM 42.8 °F 38.6 °F 33.8 °F 70% 29.68 in 10.0 mi WSW 6.9 mph - N/A   Overcast
12:55 AM 41.0 °F 35.2 °F 33.8 °F 76% 29.68 in 10.0 mi WSW 9.2 mph - N/A   Overcast
1:35 AM 39.2 °F 34.2 °F 33.8 °F 81% 29.68 in 10.0 mi SW 6.9 mph - N/A   Overcast
1:55 AM 39.2 °F 33.6 °F 33.8 °F 81% 29.68 in 10.0 mi SW 8.1 mph - N/A   Overcast
2:15 AM 39.2 °F 32.5 °F 33.8 °F 81% 29.68 in 10.0 mi WSW 10.4 mph - N/A   Overcast
2:35 AM 39.2 °F 34.2 °F 33.8 °F 81% 29.68 in 10.0 mi SW 6.9 mph - N/A   Overcast
2:55 AM 39.2 °F 35.0 °F 33.8 °F 81% 29.69 in 10.0 mi SSW 5.8 mph - N/A   Overcast
3:15 AM 39.2 °F 35.0 °F 33.8 °F 81% 29.69 in 10.0 mi SSW 5.8 mph - N/A   Overcast
3:35 AM 39.2 °F 33.6 °F 35.6 °F 87% 29.69 in 10.0 mi SW 8.1 mph - N/A   Overcast
3:55 AM 39.2 °F 33.0 °F 35.6 °F 87% 29.69 in 10.0 mi SW 9.2 mph - N/A   Overcast
4:15 AM 39.2 °F 33.6 °F 35.6 °F 87% 29.69 in 10.0 mi SW 8.1 mph - N/A   Overcast
4:35 AM 41.0 °F 35.2 °F 35.6 °F 81% 29.69 in 10.0 mi SW 9.2 mph - N/A   Overcast
4:55 AM 39.2 °F 34.2 °F 35.6 °F 87% 29.70 in 10.0 mi West 6.9 mph - N/A   Overcast
5:15 AM 39.2 °F 34.2 °F 35.6 °F 87% 29.70 in 10.0 mi West 6.9 mph - N/A   Overcast
5:35 AM 41.0 °F 35.8 °F 35.6 °F 81% 29.70 in 10.0 mi West 8.1 mph - N/A   Overcast
5:55 AM 41.0 °F 38.0 °F 35.6 °F 81% 29.71 in 10.0 mi WSW 4.6 mph - N/A   Overcast
6:15 AM 39.2 °F 34.2 °F 35.6 °F 87% 29.71 in 10.0 mi SW 6.9 mph - N/A   Overcast
6:35 AM 39.2 °F 37.0 °F 35.6 °F 87% 29.71 in 10.0 mi WSW 3.5 mph - N/A   Overcast
6:55 AM 39.2 °F 33.0 °F 35.6 °F 87% 29.71 in 10.0 mi WSW 9.2 mph - N/A   Overcast
7:15 AM 39.2 °F 35.0 °F 35.6 °F 87% 29.72 in 10.0 mi WSW 5.8 mph - N/A   Overcast
7:35 AM 39.2 °F 35.0 °F 35.6 °F 87% 29.72 in 10.0 mi WSW 5.8 mph - N/A   Overcast
7:55 AM 39.2 °F 33.6 °F 35.6 °F 87% 29.72 in 10.0 mi WSW 8.1 mph - N/A   Overcast
8:15 AM 39.2 °F 34.2 °F 35.6 °F 87% 29.73 in 10.0 mi WSW 6.9 mph - N/A   Overcast
8:35 AM 41.0 °F 35.2 °F 35.6 °F 81% 29.73 in 10.0 mi WSW 9.2 mph - N/A   Overcast
8:55 AM 44.6 °F 37.8 °F 35.6 °F 71% 29.74 in 10.0 mi SW 15.0 mph 18.4 mph N/A   Overcast
9:15 AM 44.6 °F 39.7 °F 35.6 °F 71% 29.74 in 10.0 mi WSW 9.2 mph - N/A   Overcast
9:35 AM 46.4 °F 39.5 °F 33.8 °F 62% 29.74 in 10.0 mi WSW 17.3 mph 24.2 mph N/A   Overcast
9:55 AM 48.2 °F - 33.8 °F 58% 29.75 in 10.0 mi West 12.7 mph 26.5 mph N/A   Overcast
10:15 AM 50.0 °F - 33.8 °F 54% 29.75 in 10.0 mi WSW 18.4 mph 26.5 mph N/A   Overcast
10:35 AM 51.8 °F - 33.8 °F 50% 29.75 in 10.0 mi WSW 19.6 mph 27.6 mph N/A   Overcast
10:55 AM 51.8 °F - 33.8 °F 50% 29.74 in 10.0 mi West 16.1 mph 27.6 mph N/A   Overcast
11:15 AM 51.8 °F - 33.8 °F 50% 29.75 in 10.0 mi WNW 20.7 mph 26.5 mph N/A   Overcast
11:35 AM 53.6 °F - 33.8 °F 47% 29.74 in 10.0 mi WNW 15.0 mph 24.2 mph N/A   Overcast
11:55 AM 55.4 °F - 33.8 °F 44% 29.74 in 10.0 mi West 19.6 mph 24.2 mph N/A   Overcast
12:15 PM 53.6 °F - 33.8 °F 47% 29.74 in 10.0 mi WNW 12.7 mph 25.3 mph N/A   Overcast
12:35 PM 55.4 °F - 33.8 °F 44% 29.73 in 10.0 mi West 15.0 mph 23.0 mph N/A   Overcast
12:55 PM 55.4 °F - 33.8 °F 44% 29.73 in 10.0 mi West 12.7 mph 28.8 mph N/A   Overcast
1:15 PM 57.2 °F - 33.8 °F 41% 29.72 in 10.0 mi WSW 12.7 mph 31.1 mph N/A   Overcast
1:35 PM 55.4 °F - 33.8 °F 44% 29.72 in 10.0 mi WSW 24.2 mph 29.9 mph N/A   Overcast
1:55 PM 55.4 °F - 33.8 °F 44% 29.72 in 10.0 mi WSW 21.9 mph 31.1 mph N/A   Overcast
2:15 PM 57.2 °F - 33.8 °F 41% 29.72 in 10.0 mi WSW 24.2 mph 32.2 mph N/A   Overcast
2:35 PM 59.0 °F - 35.6 °F 42% 29.71 in 10.0 mi West 18.4 mph 31.1 mph N/A   Overcast
2:55 PM 59.0 °F - 35.6 °F 42% 29.70 in 10.0 mi West 13.8 mph 33.4 mph N/A   Overcast
3:15 PM 60.8 °F - 35.6 °F 39% 29.70 in 10.0 mi West 19.6 mph 32.2 mph N/A   Overcast
3:55 PM 60.8 °F - 35.6 °F 39% 29.69 in 10.0 mi West 21.9 mph 33.4 mph N/A   Overcast
4:15 PM 62.6 °F - 35.6 °F 37% 29.69 in 10.0 mi NW 21.9 mph 31.1 mph N/A   Overcast
4:35 PM 60.8 °F - 35.6 °F 39% 29.69 in 10.0 mi WNW 12.7 mph 24.2 mph N/A   Overcast
4:55 PM 60.8 °F - 35.6 °F 39% 29.69 in 10.0 mi NW 18.4 mph 26.5 mph N/A   Overcast
5:15 PM 60.8 °F - 35.6 °F 39% 29.70 in 10.0 mi WNW 17.3 mph 25.3 mph N/A   Overcast
5:35 PM 60.8 °F - 33.8 °F 36% 29.70 in 10.0 mi WNW 13.8 mph 29.9 mph N/A   Overcast
5:55 PM 59.0 °F - 35.6 °F 42% 29.70 in 10.0 mi WNW 10.4 mph - N/A   Overcast
6:35 PM 53.6 °F - 37.4 °F 54% 29.72 in 10.0 mi WSW 5.8 mph - N/A   Overcast
6:55 PM 50.0 °F - 39.2 °F 66% 29.72 in 10.0 mi NW 3.5 mph - N/A   Overcast
7:35 PM 48.2 °F - 39.2 °F 71% 29.74 in 10.0 mi WSW 5.8 mph - N/A   Overcast
7:55 PM 48.2 °F - 37.4 °F 66% 29.75 in 10.0 mi West 6.9 mph - N/A   Overcast
8:35 PM 42.8 °F 37.0 °F 37.4 °F 81% 29.77 in 10.0 mi NNE 10.4 mph 20.7 mph N/A   Overcast
8:55 PM 46.4 °F 44.3 °F 37.4 °F 71% 29.78 in 10.0 mi ENE 4.6 mph - N/A   Overcast
9:15 PM 42.8 °F - 39.2 °F 87% 29.78 in 10.0 mi Calm Calm - N/A   Overcast
9:35 PM 42.8 °F 38.0 °F 37.4 °F 81% 29.79 in 10.0 mi SSW 8.1 mph - N/A   Overcast
9:55 PM 42.8 °F - 37.4 °F 81% 29.79 in 10.0 mi Calm Calm - N/A   Overcast
10:15 PM 41.0 °F - 37.4 °F 87% 29.79 in 10.0 mi Calm Calm - N/A   Overcast
10:35 PM 41.0 °F - 37.4 °F 87% 29.80 in 10.0 mi Calm Calm - N/A   Overcast
10:55 PM 39.2 °F - 37.4 °F 93% 29.80 in 10.0 mi Calm Calm - N/A   Overcast
11:15 PM 41.0 °F - 37.4 °F 87% 29.80 in 10.0 mi Calm Calm - N/A   Overcast
11:35 PM 39.2 °F - 35.6 °F 87% 29.80 in 10.0 mi Calm Calm - N/A   Overcast
11:55 PM 37.4 °F 31.4 °F 35.6 °F 93% 29.80 in 10.0 mi WSW 8.1 mph - N/A   Overcast